DW4360 Weather Reports


time (UTC)temp
C
wind
direction
speed
KPH
gust
KPH
rain 1hr
cm
rain 24hr
cm
rain mn
cm
humidity
%
barometer
mb
20260505022446 21 249 4.8 0.0 0.00 0.00 0.00 66 1008.8
20260505021446 22 197 1.6 0.0 0.00 0.00 0.00 66 1008.7
20260505020444 22 195 0.0 0.0 0.00 0.00 0.00 65 1008.7
20260505015443 22 254 0.0 0.0 0.00 0.00 0.00 63 1008.7
20260505014442 22 247 0.0 0.0 0.00 0.00 0.00 63 1008.7
20260505013441 22 210 0.0 0.0 0.00 0.00 0.00 63 1008.8
20260505012440 22 203 0.0 0.0 0.00 0.00 0.00 62 1008.9
20260505011439 23 218 0.0 0.0 0.00 0.00 0.00 61 1009.0
20260505010438 23 219 0.0 0.0 0.00 0.00 0.00 61 1008.9
20260505005437 23 230 0.0 0.0 0.00 0.00 0.00 59 1009.0
20260505004436 23 229 4.8 0.0 0.00 0.00 0.00 60 1009.1
20260505003435 24 225 6.4 0.0 0.00 0.00 0.00 57 1009.1
20260505002434 25 247 6.4 0.0 0.00 0.00 0.00 54 1009.1
20260505001432 25 246 6.4 0.0 0.00 0.00 0.00 56 1009.1
20260505000432 25 261 11.3 0.0 0.00 0.00 0.00 54 1009.3
20260504235431 25 219 0.0 0.0 0.00 0.00 0.00 53 1009.3
20260504234429 26 209 4.8 0.0 0.00 0.00 0.00 52 1009.3
20260504233429 26 241 0.0 0.0 0.00 0.00 0.00 53 1009.3
20260504231427 25 227 0.0 0.0 0.00 0.00 0.00 55 1009.5
20260504230425 25 259 0.0 0.0 0.00 0.00 0.00 52 1009.6
20260504225425 24 269 3.2 0.0 0.00 0.00 0.00 55 1009.8
20260504224423 24 240 1.6 0.0 0.00 0.00 0.00 54 1009.8
20260504223422 24 165 0.0 0.0 0.00 0.00 0.00 55 1010.0
20260504222421 24 161 0.0 0.0 0.00 0.00 0.00 55 1010.1
20260504221421 24 223 0.0 0.0 0.00 0.00 0.00 53 1010.2
20260504220420 24 231 0.0 0.0 0.00 0.00 0.00 55 1010.4
20260504215419 24 238 0.0 0.0 0.00 0.00 0.00 55 1010.5
20260504214418 23 252 0.0 0.0 0.00 0.00 0.00 55 1010.6
20260504204412 22 205 0.0 0.0 0.00 0.00 0.00 61 1011.6
20260504203411 22 248 0.0 0.0 0.00 0.00 0.00 60 1011.6
20260504202409 21 198 0.0 0.0 0.00 0.00 0.00 62 1011.7
20260504201408 21 239 0.0 0.0 0.00 0.00 0.00 62 1011.8
20260504200407 21 209 0.0 0.0 0.00 0.00 0.00 64 1012.0
20260504193404 18 179 0.0 0.0 0.00 0.00 0.00 68 1012.2
20260504192403 18 244 0.0 0.0 0.00 0.00 0.00 69 1012.2
20260504191403 17 201 0.0 0.0 0.00 0.00 0.00 71 1012.2
20260504190401 17 248 3.2 0.0 0.00 0.00 0.00 73 1012.3
20260504185401 17 266 4.8 0.0 0.00 0.00 0.00 73 1012.4
20260504184359 16 254 0.0 0.0 0.00 0.00 0.00 74 1012.5
20260504183359 16 181 0.0 0.0 0.00 0.00 0.00 75 1012.4
20260504182358 16 192 11.3 0.0 0.00 0.00 0.00 76 1012.4
20260504181356 16 214 0.0 0.0 0.00 0.00 0.00 78 1012.4
20260504180355 15 206 0.0 0.0 0.00 0.00 0.00 79 1012.5
20260504172351 14 215 0.0 0.0 0.00 0.00 0.00 80 1012.4
20260504171350 14 254 1.6 0.0 0.00 0.00 0.00 81 1012.4
20260504160343 13 229 0.0 0.0 0.00 0.00 0.00 83 1012.3
20260504150337 12 184 9.7 0.0 0.00 0.00 0.00 85 1011.9
20260504141331 12 266 1.6 0.0 0.00 0.00 0.00 85 1011.2
20260504110312 16 214 4.8 0.0 0.00 0.00 0.00 73 1008.5
20260504100307 17 198 0.0 0.0 0.00 0.00 0.00 68 1007.7
20260504081255 20 315 0.0 0.0 0.00 0.00 0.00 56 1007.0
20260504080254 20 315 0.0 0.0 0.00 0.00 0.00 57 1006.8
20260504070248 22 315 0.0 0.0 0.00 0.00 0.00 47 1006.4
20260504060242 23 315 0.0 0.0 0.00 0.00 0.00 41 1005.9
20260504050236 25 324 0.0 0.0 0.00 0.00 0.00 40 1005.8
20260504045235 25 324 0.0 0.0 0.00 0.00 0.00 40 1005.9
20260504044234 25 316 0.0 0.0 0.00 0.00 0.00 40 1005.8
20260504043233 26 322 3.2 0.0 0.00 0.00 0.00 41 1005.7
20260504042232 26 321 0.0 0.0 0.00 0.00 0.00 41 1005.7
20260504041231 26 324 0.0 0.0 0.00 0.00 0.00 41 1005.7
20260504040230 26 322 0.0 0.0 0.00 0.00 0.00 39 1005.5
20260504035229 27 325 0.0 0.0 0.00 0.00 0.00 38 1005.4
20260504034228 27 304 0.0 0.0 0.00 0.00 0.00 37 1005.3
20260504033226 27 333 0.0 0.0 0.00 0.00 0.00 37 1005.2
20260504032225 28 320 0.0 0.0 0.00 0.00 0.00 36 1005.1
20260504031225 28 325 0.0 0.0 0.00 0.00 0.00 35 1005.0
20260504030223 28 317 0.0 0.0 0.00 0.00 0.00 34 1005.0
20260504025223 29 326 4.8 0.0 0.00 0.00 0.00 33 1004.9
20260504024221 29 321 0.0 0.0 0.00 0.00 0.00 32 1004.8
20260504023221 30 323 3.2 0.0 0.00 0.00 0.00 31 1004.8